Time,TemperatureF,DewpointF,PressureIn,WindDirection,WindDirectionDegrees,WindSpeedMPH,WindSpeedGustMPH,Humidity,HourlyPrecipIn,Conditions,Clouds,dailyrainin,SoftwareType,DateUTC
2013-08-24 00:01:00,73.9,69.1,29.99,East,95,0.0,0.0,85,0.00,,,0.00,WUHU216DAVISVP2,2013-08-24 05:01:00,
2013-08-24 00:06:00,73.8,69.0,29.99,SE,124,1.0,1.0,85,0.00,,,0.00,WUHU216DAVISVP2,2013-08-24 05:06:00,
2013-08-24 00:11:00,73.8,69.0,29.98,SE,124,0.0,1.0,85,0.00,,,0.00,WUHU216DAVISVP2,2013-08-24 05:11:00,
2013-08-24 00:16:00,73.8,69.0,29.98,SE,138,0.0,1.0,85,0.00,,,0.00,WUHU216DAVISVP2,2013-08-24 05:16:00,
2013-08-24 00:21:00,73.8,69.0,29.98,SE,131,1.0,3.0,85,0.00,,,0.00,WUHU216DAVISVP2,2013-08-24 05:21:00,
2013-08-24 00:26:00,73.8,68.7,29.98,East,90,2.0,4.0,84,0.00,,,0.00,WUHU216DAVISVP2,2013-08-24 05:26:00,
2013-08-24 00:31:00,73.8,68.7,29.98,ESE,113,1.0,4.0,84,0.00,,,0.00,WUHU216DAVISVP2,2013-08-24 05:31:00,
2013-08-24 00:36:00,73.9,68.8,29.98,SSE,147,1.0,4.0,84,0.00,,,0.00,WUHU216DAVISVP2,2013-08-24 05:36:00,
2013-08-24 00:41:00,73.9,68.8,29.98,SE,126,2.0,4.0,84,0.00,,,0.00,WUHU216DAVISVP2,2013-08-24 05:41:00,
2013-08-24 00:46:00,73.9,68.8,29.98,SE,136,2.0,3.0,84,0.00,,,0.00,WUHU216DAVISVP2,2013-08-24 05:46:00,
2013-08-24 00:51:00,73.9,68.8,29.98,ESE,105,2.0,3.0,84,0.00,,,0.00,WUHU216DAVISVP2,2013-08-24 05:51:00,
2013-08-24 00:56:00,74.0,68.9,29.98,ESE,114,2.0,3.0,84,0.00,,,0.00,WUHU216DAVISVP2,2013-08-24 05:56:00,
2013-08-24 01:01:00,74.0,68.6,29.98,SE,127,1.0,3.0,83,0.00,,,0.00,WUHU216DAVISVP2,2013-08-24 06:01:00,
2013-08-24 01:06:00,73.9,68.8,29.98,SE,130,1.0,3.0,84,0.00,,,0.00,WUHU216DAVISVP2,2013-08-24 06:06:00,
2013-08-24 01:11:00,73.9,68.8,29.98,SE,133,1.0,3.0,84,0.00,,,0.00,WUHU216DAVISVP2,2013-08-24 06:11:00,
2013-08-24 01:16:00,73.8,68.7,29.98,SE,129,1.0,4.0,84,0.00,,,0.00,WUHU216DAVISVP2,2013-08-24 06:16:00,
2013-08-24 01:21:00,73.7,68.6,29.98,ESE,119,1.0,4.0,84,0.00,,,0.00,WUHU216DAVISVP2,2013-08-24 06:21:00,
2013-08-24 01:26:00,73.7,68.6,29.98,SE,140,1.0,4.0,84,0.00,,,0.00,WUHU216DAVISVP2,2013-08-24 06:26:00,
2013-08-24 01:31:00,73.6,68.5,29.98,SE,137,0.0,3.0,84,0.00,,,0.00,WUHU216DAVISVP2,2013-08-24 06:31:00,
2013-08-24 01:36:00,73.5,68.4,29.98,SE,140,1.0,3.0,84,0.00,,,0.00,WUHU216DAVISVP2,2013-08-24 06:36:00,
2013-08-24 01:41:00,73.5,68.7,29.98,SE,138,0.0,1.0,85,0.00,,,0.00,WUHU216DAVISVP2,2013-08-24 06:41:00,
2013-08-24 01:46:00,73.4,68.6,29.98,East,101,2.0,4.0,85,0.00,,,0.00,WUHU216DAVISVP2,2013-08-24 06:46:00,
2013-08-24 01:51:00,73.3,68.6,29.98,ESE,121,1.0,4.0,85,0.00,,,0.00,WUHU216DAVISVP2,2013-08-24 06:51:00,
2013-08-24 01:56:00,73.2,68.5,29.98,ESE,120,0.0,4.0,85,0.00,,,0.00,WUHU216DAVISVP2,2013-08-24 06:56:00,
2013-08-24 02:01:00,73.2,68.5,29.98,SE,134,1.0,4.0,85,0.00,,,0.00,WUHU216DAVISVP2,2013-08-24 07:01:00,
2013-08-24 02:06:00,73.1,68.4,29.98,ESE,114,1.0,3.0,85,0.00,,,0.00,WUHU216DAVISVP2,2013-08-24 07:06:00,
2013-08-24 02:11:00,73.0,68.6,29.98,SE,139,0.0,4.0,86,0.00,,,0.00,WUHU216DAVISVP2,2013-08-24 07:11:00,
2013-08-24 02:16:00,72.9,68.5,29.97,SE,140,0.0,4.0,86,0.00,,,0.00,WUHU216DAVISVP2,2013-08-24 07:16:00,
2013-08-24 02:21:00,72.7,68.3,29.98,East,96,3.0,4.0,86,0.00,,,0.00,WUHU216DAVISVP2,2013-08-24 07:21:00,
2013-08-24 02:26:00,72.6,68.5,29.98,SE,126,1.0,4.0,87,0.00,,,0.00,WUHU216DAVISVP2,2013-08-24 07:26:00,
2013-08-24 02:31:00,72.5,68.4,29.98,SE,131,1.0,3.0,87,0.00,,,0.00,WUHU216DAVISVP2,2013-08-24 07:31:00,
2013-08-24 02:36:00,72.3,68.2,29.98,ESE,118,1.0,3.0,87,0.00,,,0.00,WUHU216DAVISVP2,2013-08-24 07:36:00,
2013-08-24 02:41:00,72.2,68.4,29.97,SE,130,1.0,4.0,88,0.00,,,0.00,WUHU216DAVISVP2,2013-08-24 07:41:00,
2013-08-24 02:46:00,72.1,68.3,29.98,SE,127,2.0,5.0,88,0.00,,,0.00,WUHU216DAVISVP2,2013-08-24 07:46:00,
2013-08-24 02:51:00,72.1,68.4,29.98,SE,128,1.0,5.0,88,0.00,,,0.00,WUHU216DAVISVP2,2013-08-24 07:51:00,
2013-08-24 02:56:00,72.1,68.7,29.98,SE,134,2.0,5.0,89,0.00,,,0.00,WUHU216DAVISVP2,2013-08-24 07:56:00,
2013-08-24 03:01:00,72.0,68.6,29.98,SE,133,1.0,5.0,89,0.00,,,0.00,WUHU216DAVISVP2,2013-08-24 08:01:00,
2013-08-24 03:06:00,71.8,68.7,29.98,SE,135,1.0,5.0,90,0.00,,,0.00,WUHU216DAVISVP2,2013-08-24 08:06:00,
2013-08-24 03:11:00,71.7,68.6,29.98,East,91,4.0,5.0,90,0.00,,,0.00,WUHU216DAVISVP2,2013-08-24 08:11:00,
2013-08-24 03:16:00,71.7,68.9,29.98,ESE,106,2.0,4.0,91,0.00,,,0.00,WUHU216DAVISVP2,2013-08-24 08:16:00,
2013-08-24 03:21:00,71.7,68.9,29.98,ESE,114,2.0,5.0,91,0.00,,,0.00,WUHU216DAVISVP2,2013-08-24 08:21:00,
2013-08-24 03:26:00,71.8,69.0,29.97,ESE,114,2.0,5.0,91,0.00,,,0.00,WUHU216DAVISVP2,2013-08-24 08:26:00,
2013-08-24 03:31:00,71.7,68.9,29.97,ESE,119,3.0,9.0,91,0.00,,,0.00,WUHU216DAVISVP2,2013-08-24 08:31:00,
2013-08-24 03:36:00,71.6,68.8,29.97,East,86,3.0,9.0,91,0.00,,,0.00,WUHU216DAVISVP2,2013-08-24 08:36:00,
2013-08-24 03:41:00,71.6,69.1,29.97,SE,131,1.0,9.0,92,0.00,,,0.00,WUHU216DAVISVP2,2013-08-24 08:41:00,
2013-08-24 03:46:00,71.4,69.0,29.98,SE,126,2.0,9.0,92,0.00,,,0.00,WUHU216DAVISVP2,2013-08-24 08:46:00,
2013-08-24 03:51:00,71.4,68.9,29.97,ESE,116,2.0,5.0,92,0.00,,,0.00,WUHU216DAVISVP2,2013-08-24 08:51:00,
2013-08-24 03:56:00,71.4,69.0,29.97,SE,126,2.0,5.0,92,0.00,,,0.00,WUHU216DAVISVP2,2013-08-24 08:56:00,
2013-08-24 04:01:00,71.4,68.9,29.97,ESE,120,2.0,5.0,92,0.00,,,0.00,WUHU216DAVISVP2,2013-08-24 09:01:00,
2013-08-24 04:06:00,71.5,69.0,29.98,ESE,106,2.0,7.0,92,0.00,,,0.00,WUHU216DAVISVP2,2013-08-24 09:06:00,
2013-08-24 04:11:00,71.5,69.0,29.98,SE,131,3.0,7.0,92,0.00,,,0.00,WUHU216DAVISVP2,2013-08-24 09:11:00,
2013-08-24 04:16:00,71.5,69.0,29.98,East,89,3.0,7.0,92,0.00,,,0.00,WUHU216DAVISVP2,2013-08-24 09:16:00,
2013-08-24 04:21:00,71.4,68.9,29.98,ESE,118,2.0,7.0,92,0.00,,,0.00,WUHU216DAVISVP2,2013-08-24 09:21:00,
2013-08-24 04:26:00,71.4,68.9,29.98,ESE,108,2.0,5.0,92,0.00,,,0.00,WUHU216DAVISVP2,2013-08-24 09:26:00,
2013-08-24 04:31:00,71.4,68.9,29.98,SE,138,1.0,5.0,92,0.00,,,0.00,WUHU216DAVISVP2,2013-08-24 09:31:00,
2013-08-24 04:36:00,71.5,69.0,29.98,ESE,117,2.0,5.0,92,0.00,,,0.00,WUHU216DAVISVP2,2013-08-24 09:36:00,
2013-08-24 04:41:00,71.5,69.0,29.98,ESE,120,4.0,4.0,92,0.00,,,0.00,WUHU216DAVISVP2,2013-08-24 09:41:00,
2013-08-24 04:46:00,71.5,69.0,29.98,ESE,111,2.0,5.0,92,0.00,,,0.00,WUHU216DAVISVP2,2013-08-24 09:46:00,
2013-08-24 04:51:00,71.5,69.1,29.99,ESE,111,3.0,8.0,92,0.00,,,0.00,WUHU216DAVISVP2,2013-08-24 09:51:00,
2013-08-24 04:56:00,71.5,68.7,29.99,SE,133,2.0,9.0,91,0.00,,,0.00,WUHU216DAVISVP2,2013-08-24 09:56:00,
2013-08-24 05:01:00,71.6,68.8,29.99,SE,134,2.0,9.0,91,0.00,,,0.00,WUHU216DAVISVP2,2013-08-24 10:01:00,
2013-08-24 05:06:00,71.6,68.8,29.99,SE,144,1.0,9.0,91,0.00,,,0.00,WUHU216DAVISVP2,2013-08-24 10:06:00,
2013-08-24 05:11:00,71.6,68.8,29.99,ESE,115,2.0,7.0,91,0.00,,,0.00,WUHU216DAVISVP2,2013-08-24 10:11:00,
2013-08-24 05:16:00,71.6,68.8,29.99,SE,127,2.0,4.0,91,0.00,,,0.00,WUHU216DAVISVP2,2013-08-24 10:16:00,
2013-08-24 05:21:00,71.6,68.8,29.99,SSE,158,1.0,5.0,91,0.00,,,0.00,WUHU216DAVISVP2,2013-08-24 10:21:00,
2013-08-24 05:26:00,71.7,69.2,29.98,East,81,4.0,5.0,92,0.01,,,0.01,WUHU216DAVISVP2,2013-08-24 10:26:00,
2013-08-24 05:31:00,71.7,69.5,29.98,ESE,117,2.0,8.0,93,0.02,,,0.02,WUHU216DAVISVP2,2013-08-24 10:31:00,
2013-08-24 05:36:00,71.7,69.5,29.98,ESE,119,2.0,8.0,93,0.03,,,0.03,WUHU216DAVISVP2,2013-08-24 10:36:00,
2013-08-24 05:41:00,71.6,69.4,29.98,East,94,4.0,8.0,93,0.03,,,0.03,WUHU216DAVISVP2,2013-08-24 10:41:00,
2013-08-24 05:46:00,71.5,69.3,29.98,ESE,122,2.0,8.0,93,0.03,,,0.03,WUHU216DAVISVP2,2013-08-24 10:46:00,
2013-08-24 05:51:00,71.3,69.1,29.98,East,89,4.0,7.0,93,0.03,,,0.03,WUHU216DAVISVP2,2013-08-24 10:51:00,
2013-08-24 05:56:00,71.3,69.1,29.98,ESE,114,3.0,8.0,93,0.03,,,0.03,WUHU216DAVISVP2,2013-08-24 10:56:00,
2013-08-24 06:01:00,71.4,69.2,29.98,SE,133,4.0,13.0,93,0.03,,,0.03,WUHU216DAVISVP2,2013-08-24 11:01:00,
2013-08-24 06:06:00,71.5,69.3,29.98,South,182,5.0,13.0,93,0.03,,,0.03,WUHU216DAVISVP2,2013-08-24 11:06:00,
2013-08-24 06:11:00,71.5,69.0,29.98,SE,134,3.0,13.0,92,0.03,,,0.03,WUHU216DAVISVP2,2013-08-24 11:11:00,
2013-08-24 06:16:00,71.4,68.9,29.98,ESE,117,4.0,13.0,92,0.03,,,0.03,WUHU216DAVISVP2,2013-08-24 11:16:00,
2013-08-24 06:21:00,71.3,68.5,29.98,East,88,13.0,13.0,91,0.03,,,0.03,WUHU216DAVISVP2,2013-08-24 11:21:00,
2013-08-24 06:26:00,71.2,68.1,29.98,SSE,154,4.0,13.0,90,0.02,,,0.03,WUHU216DAVISVP2,2013-08-24 11:26:00,
2013-08-24 06:31:00,71.2,68.1,29.98,SE,136,3.0,13.0,90,0.01,,,0.03,WUHU216DAVISVP2,2013-08-24 11:31:00,
2013-08-24 06:36:00,71.2,67.8,29.98,SE,124,3.0,13.0,89,0.00,,,0.03,WUHU216DAVISVP2,2013-08-24 11:36:00,
2013-08-24 06:41:00,71.2,67.8,29.98,SE,129,3.0,10.0,89,0.00,,,0.03,WUHU216DAVISVP2,2013-08-24 11:41:00,
2013-08-24 06:46:00,71.1,67.7,29.98,ESE,116,4.0,9.0,89,0.00,,,0.03,WUHU216DAVISVP2,2013-08-24 11:46:00,
2013-08-24 06:51:00,71.0,67.3,29.97,SE,133,3.0,9.0,88,0.00,,,0.03,WUHU216DAVISVP2,2013-08-24 11:51:00,
2013-08-24 06:56:00,71.1,67.0,29.98,SE,145,3.0,9.0,87,0.00,,,0.03,WUHU216DAVISVP2,2013-08-24 11:56:00,
2013-08-24 07:01:00,71.2,67.1,29.98,SE,131,3.0,10.0,87,0.00,,,0.03,WUHU216DAVISVP2,2013-08-24 12:01:00,
2013-08-24 07:06:00,71.4,67.7,29.98,SE,145,5.0,10.0,88,0.01,,,0.04,WUHU216DAVISVP2,2013-08-24 12:06:00,
2013-08-24 07:11:00,71.3,67.6,29.98,SE,125,4.0,10.0,88,0.01,,,0.04,WUHU216DAVISVP2,2013-08-24 12:11:00,
2013-08-24 07:16:00,71.4,68.0,29.98,ESE,115,4.0,10.0,89,0.01,,,0.04,WUHU216DAVISVP2,2013-08-24 12:16:00,
2013-08-24 07:21:00,71.5,68.1,29.98,SE,140,3.0,9.0,89,0.01,,,0.04,WUHU216DAVISVP2,2013-08-24 12:21:00,
2013-08-24 07:26:00,71.6,68.2,29.99,ESE,120,4.0,9.0,89,0.01,,,0.04,WUHU216DAVISVP2,2013-08-24 12:26:00,
2013-08-24 07:31:00,71.8,68.4,30.00,SE,139,3.0,9.0,89,0.01,,,0.04,WUHU216DAVISVP2,2013-08-24 12:31:00,
2013-08-24 07:36:00,71.9,68.5,29.99,ENE,58,3.0,13.0,89,0.01,,,0.04,WUHU216DAVISVP2,2013-08-24 12:36:00,
2013-08-24 07:41:00,72.0,68.9,29.99,SE,132,3.0,13.0,90,0.01,,,0.04,WUHU216DAVISVP2,2013-08-24 12:41:00,
2013-08-24 07:46:00,71.8,69.0,29.98,SSE,155,7.0,14.0,91,0.02,,,0.05,WUHU216DAVISVP2,2013-08-24 12:46:00,
2013-08-24 07:51:00,71.5,69.0,29.98,SE,126,3.0,14.0,92,0.03,,,0.06,WUHU216DAVISVP2,2013-08-24 12:51:00,
2013-08-24 07:56:00,71.2,69.0,29.98,SE,133,3.0,14.0,93,0.04,,,0.07,WUHU216DAVISVP2,2013-08-24 12:56:00,
2013-08-24 08:01:00,71.2,69.0,29.98,SE,129,3.0,10.0,93,0.07,,,0.10,WUHU216DAVISVP2,2013-08-24 13:01:00,
2013-08-24 08:06:00,71.1,69.3,29.99,East,89,3.0,9.0,94,0.06,,,0.10,WUHU216DAVISVP2,2013-08-24 13:06:00,
2013-08-24 08:11:00,71.1,69.3,29.98,SE,143,3.0,12.0,94,0.06,,,0.10,WUHU216DAVISVP2,2013-08-24 13:11:00,
2013-08-24 08:16:00,71.1,68.9,29.98,SSE,165,3.0,12.0,93,0.07,,,0.11,WUHU216DAVISVP2,2013-08-24 13:16:00,
2013-08-24 08:21:00,71.1,68.9,29.99,SE,144,2.0,12.0,93,0.07,,,0.11,WUHU216DAVISVP2,2013-08-24 13:21:00,
2013-08-24 08:26:00,71.2,69.0,29.99,ESE,122,2.0,5.0,93,0.07,,,0.11,WUHU216DAVISVP2,2013-08-24 13:26:00,
2013-08-24 08:31:00,71.2,69.0,29.99,SE,134,2.0,5.0,93,0.07,,,0.11,WUHU216DAVISVP2,2013-08-24 13:31:00,
2013-08-24 08:36:00,71.3,69.1,30.00,ESE,120,3.0,5.0,93,0.07,,,0.11,WUHU216DAVISVP2,2013-08-24 13:36:00,
2013-08-24 08:41:00,71.4,69.6,29.99,ESE,112,4.0,5.0,94,0.07,,,0.11,WUHU216DAVISVP2,2013-08-24 13:41:00,
2013-08-24 08:46:00,71.4,69.6,29.98,ESE,115,3.0,12.0,94,0.08,,,0.13,WUHU216DAVISVP2,2013-08-24 13:46:00,
2013-08-24 08:51:00,71.5,69.7,29.98,NNE,27,5.0,12.0,94,0.07,,,0.13,WUHU216DAVISVP2,2013-08-24 13:51:00,
2013-08-24 08:56:00,71.5,69.7,29.97,ESE,118,5.0,12.0,94,0.06,,,0.13,WUHU216DAVISVP2,2013-08-24 13:56:00,
2013-08-24 09:01:00,71.7,69.8,29.97,East,98,8.0,12.0,94,0.03,,,0.13,WUHU216DAVISVP2,2013-08-24 14:01:00,
2013-08-24 09:06:00,71.8,69.9,29.96,SSE,148,8.0,12.0,94,0.03,,,0.13,WUHU216DAVISVP2,2013-08-24 14:06:00,
2013-08-24 09:11:00,71.8,69.9,29.96,SE,131,4.0,12.0,94,0.03,,,0.13,WUHU216DAVISVP2,2013-08-24 14:11:00,
2013-08-24 09:16:00,71.9,70.0,29.96,ESE,122,3.0,9.0,94,0.02,,,0.13,WUHU216DAVISVP2,2013-08-24 14:16:00,
2013-08-24 09:21:00,72.1,69.9,29.96,SE,127,4.0,14.0,93,0.02,,,0.13,WUHU216DAVISVP2,2013-08-24 14:21:00,
2013-08-24 09:25:00,72.2,70.0,29.96,SE,128,3.0,14.0,93,0.02,,,0.13,WUHU216DAVISVP2,2013-08-24 14:25:00,
2013-08-24 09:30:00,72.3,70.1,29.96,SE,133,3.0,14.0,93,0.02,,,0.13,WUHU216DAVISVP2,2013-08-24 14:30:00,
2013-08-24 09:35:00,72.3,70.1,29.96,SE,129,3.0,14.0,93,0.02,,,0.13,WUHU216DAVISVP2,2013-08-24 14:35:00,
2013-08-24 09:40:00,72.4,69.9,29.96,SE,128,4.0,9.0,92,0.02,,,0.13,WUHU216DAVISVP2,2013-08-24 14:40:00,
2013-08-24 09:45:00,72.5,70.0,29.96,South,186,3.0,9.0,92,0.00,,,0.13,WUHU216DAVISVP2,2013-08-24 14:45:00,
2013-08-24 09:50:00,72.6,70.1,29.97,SE,140,2.0,8.0,92,0.00,,,0.13,WUHU216DAVISVP2,2013-08-24 14:50:00,
2013-08-24 09:55:00,72.6,70.1,29.98,SSE,165,2.0,8.0,92,0.00,,,0.13,WUHU216DAVISVP2,2013-08-24 14:55:00,
2013-08-24 10:00:00,72.6,70.1,29.99,SE,133,1.0,7.0,92,0.00,,,0.13,WUHU216DAVISVP2,2013-08-24 15:00:00,
2013-08-24 10:06:00,72.6,70.1,30.00,SE,143,1.0,7.0,92,0.00,,,0.13,WUHU216DAVISVP2,2013-08-24 15:06:00,
2013-08-24 10:11:00,72.6,70.1,30.01,South,170,2.0,7.0,92,0.00,,,0.13,WUHU216DAVISVP2,2013-08-24 15:11:00,
2013-08-24 10:16:00,72.7,70.2,30.01,SE,144,2.0,5.0,92,0.00,,,0.13,WUHU216DAVISVP2,2013-08-24 15:16:00,
2013-08-24 10:21:00,72.8,70.3,30.00,SE,129,2.0,4.0,92,0.01,,,0.14,WUHU216DAVISVP2,2013-08-24 15:21:00,
2013-08-24 10:26:00,72.8,70.3,29.99,SSW,192,3.0,7.0,92,0.01,,,0.14,WUHU216DAVISVP2,2013-08-24 15:26:00,
2013-08-24 10:31:00,72.8,70.6,29.99,ESE,121,3.0,7.0,93,0.01,,,0.14,WUHU216DAVISVP2,2013-08-24 15:31:00,
2013-08-24 10:36:00,72.9,70.7,29.98,SSE,161,4.0,7.0,93,0.01,,,0.14,WUHU216DAVISVP2,2013-08-24 15:36:00,
2013-08-24 10:41:00,73.2,70.7,29.97,SE,146,2.0,7.0,92,0.01,,,0.14,WUHU216DAVISVP2,2013-08-24 15:41:00,
2013-08-24 10:46:00,73.3,70.8,29.97,SE,137,3.0,7.0,92,0.01,,,0.14,WUHU216DAVISVP2,2013-08-24 15:46:00,
2013-08-24 10:51:00,73.5,71.0,29.97,SSE,158,2.0,7.0,92,0.01,,,0.14,WUHU216DAVISVP2,2013-08-24 15:51:00,
2013-08-24 10:56:00,74.1,71.6,29.97,SSE,166,3.0,14.0,92,0.02,,,0.15,WUHU216DAVISVP2,2013-08-24 15:56:00,
2013-08-24 11:01:00,74.8,71.7,29.97,SE,136,3.0,14.0,90,0.02,,,0.15,WUHU216DAVISVP2,2013-08-24 16:01:00,
2013-08-24 11:06:00,75.6,72.1,29.96,SE,143,2.0,14.0,89,0.02,,,0.15,WUHU216DAVISVP2,2013-08-24 16:06:00,
2013-08-24 11:11:00,76.4,72.6,29.96,SE,135,3.0,10.0,88,0.02,,,0.15,WUHU216DAVISVP2,2013-08-24 16:11:00,
2013-08-24 11:16:00,77.0,72.5,29.96,SSE,153,3.0,10.0,86,0.02,,,0.15,WUHU216DAVISVP2,2013-08-24 16:16:00,
2013-08-24 11:21:00,77.5,73.0,29.96,SE,146,2.0,9.0,86,0.01,,,0.15,WUHU216DAVISVP2,2013-08-24 16:21:00,
2013-08-24 11:26:00,77.8,72.6,29.96,SSE,167,3.0,9.0,84,0.01,,,0.15,WUHU216DAVISVP2,2013-08-24 16:26:00,
2013-08-24 11:31:00,78.2,73.0,29.95,SE,134,2.0,7.0,84,0.01,,,0.15,WUHU216DAVISVP2,2013-08-24 16:31:00,
2013-08-24 11:36:00,78.8,72.9,29.95,South,185,4.0,5.0,82,0.01,,,0.15,WUHU216DAVISVP2,2013-08-24 16:36:00,
2013-08-24 11:41:00,79.2,73.0,29.95,SSE,148,3.0,7.0,81,0.01,,,0.15,WUHU216DAVISVP2,2013-08-24 16:41:00,
2013-08-24 11:46:00,79.5,72.9,29.95,SSE,155,3.0,8.0,80,0.01,,,0.15,WUHU216DAVISVP2,2013-08-24 16:46:00,
2013-08-24 11:51:00,79.8,72.7,29.95,ESE,107,4.0,9.0,79,0.01,,,0.15,WUHU216DAVISVP2,2013-08-24 16:51:00,
2013-08-24 11:56:00,79.9,72.9,29.95,SSE,164,3.0,9.0,79,0.00,,,0.15,WUHU216DAVISVP2,2013-08-24 16:56:00,
2013-08-24 12:01:00,80.1,73.1,29.95,SSW,203,3.0,9.0,79,0.00,,,0.15,WUHU216DAVISVP2,2013-08-24 17:01:00,
2013-08-24 12:06:00,80.3,73.0,29.95,SSE,152,4.0,9.0,78,0.00,,,0.15,WUHU216DAVISVP2,2013-08-24 17:06:00,
2013-08-24 12:11:00,80.5,73.1,29.95,SE,146,9.0,9.0,78,0.00,,,0.15,WUHU216DAVISVP2,2013-08-24 17:11:00,
2013-08-24 12:16:00,80.5,72.8,29.95,ESE,118,4.0,12.0,77,0.00,,,0.15,WUHU216DAVISVP2,2013-08-24 17:16:00,
2013-08-24 12:21:00,80.9,73.5,29.95,SSE,153,2.0,12.0,78,0.00,,,0.15,WUHU216DAVISVP2,2013-08-24 17:21:00,
2013-08-24 12:26:00,81.3,73.6,29.95,SE,128,2.0,12.0,77,0.00,,,0.15,WUHU216DAVISVP2,2013-08-24 17:26:00,
2013-08-24 12:30:00,81.6,73.1,29.95,SSE,155,3.0,12.0,75,0.00,,,0.15,WUHU216DAVISVP2,2013-08-24 17:30:00,
2013-08-24 12:35:00,81.7,73.2,29.95,South,174,4.0,10.0,75,0.00,,,0.15,WUHU216DAVISVP2,2013-08-24 17:35:00,
2013-08-24 12:40:00,82.1,73.2,29.94,SSE,157,3.0,10.0,74,0.00,,,0.15,WUHU216DAVISVP2,2013-08-24 17:40:00,
2013-08-24 12:45:00,82.4,73.9,29.94,SSE,161,3.0,10.0,75,0.00,,,0.15,WUHU216DAVISVP2,2013-08-24 17:45:00,
2013-08-24 12:50:00,82.5,73.6,29.94,NW,321,3.0,10.0,74,0.00,,,0.15,WUHU216DAVISVP2,2013-08-24 17:50:00,
2013-08-24 12:55:00,82.7,73.8,29.93,SE,138,4.0,8.0,74,0.00,,,0.15,WUHU216DAVISVP2,2013-08-24 17:55:00,
2013-08-24 13:00:00,82.9,74.0,29.93,SE,139,3.0,8.0,74,0.00,,,0.15,WUHU216DAVISVP2,2013-08-24 18:00:00,
2013-08-24 13:05:00,83.1,73.5,29.93,ESE,103,5.0,8.0,73,0.00,,,0.15,WUHU216DAVISVP2,2013-08-24 18:05:00,
2013-08-24 13:10:00,83.4,74.0,29.92,South,171,4.0,9.0,73,0.00,,,0.15,WUHU216DAVISVP2,2013-08-24 18:10:00,
2013-08-24 13:15:00,83.5,74.1,29.92,SSE,151,7.0,10.0,73,0.00,,,0.15,WUHU216DAVISVP2,2013-08-24 18:15:00,
2013-08-24 13:20:00,83.6,74.6,29.93,ESE,105,4.0,10.0,74,0.00,,,0.15,WUHU216DAVISVP2,2013-08-24 18:20:00,
2013-08-24 13:25:00,84.0,74.2,29.93,SSE,157,3.0,10.0,72,0.00,,,0.15,WUHU216DAVISVP2,2013-08-24 18:25:00,
2013-08-24 13:30:00,84.2,74.8,29.93,SE,139,4.0,10.0,73,0.00,,,0.15,WUHU216DAVISVP2,2013-08-24 18:30:00,
2013-08-24 13:35:00,84.5,74.7,29.93,South,174,4.0,9.0,72,0.00,,,0.15,WUHU216DAVISVP2,2013-08-24 18:35:00,
2013-08-24 13:40:00,84.5,75.1,29.92,SSE,150,3.0,9.0,73,0.00,,,0.15,WUHU216DAVISVP2,2013-08-24 18:40:00,
2013-08-24 13:45:00,84.7,74.9,29.93,SSE,153,4.0,9.0,72,0.00,,,0.15,WUHU216DAVISVP2,2013-08-24 18:45:00,
2013-08-24 13:50:00,85.2,75.4,29.93,South,174,3.0,9.0,72,0.00,,,0.15,WUHU216DAVISVP2,2013-08-24 18:50:00,
2013-08-24 13:55:00,85.2,75.0,29.93,SSE,148,3.0,9.0,71,0.00,,,0.15,WUHU216DAVISVP2,2013-08-24 18:55:00,
2013-08-24 14:00:00,85.1,74.9,29.93,SSE,154,3.0,9.0,71,0.00,,,0.15,WUHU216DAVISVP2,2013-08-24 19:00:00,
2013-08-24 14:05:00,84.9,75.1,29.92,SE,142,3.0,8.0,72,0.00,,,0.15,WUHU216DAVISVP2,2013-08-24 19:05:00,
2013-08-24 14:10:00,84.9,75.1,29.93,SSE,165,5.0,12.0,72,0.00,,,0.15,WUHU216DAVISVP2,2013-08-24 19:10:00,
2013-08-24 14:15:00,85.3,76.3,29.93,ESE,117,3.0,12.0,74,0.00,,,0.15,WUHU216DAVISVP2,2013-08-24 19:15:00,
2013-08-24 14:20:00,85.9,76.1,29.93,SE,142,2.0,12.0,72,0.00,,,0.15,WUHU216DAVISVP2,2013-08-24 19:20:00,
2013-08-24 14:25:00,86.0,75.7,29.93,ESE,103,4.0,12.0,71,0.00,,,0.15,WUHU216DAVISVP2,2013-08-24 19:25:00,
2013-08-24 14:30:00,86.0,75.7,29.93,SE,136,4.0,8.0,71,0.00,,,0.15,WUHU216DAVISVP2,2013-08-24 19:30:00,
2013-08-24 14:35:00,86.0,76.2,29.93,SSE,163,2.0,8.0,72,0.00,,,0.15,WUHU216DAVISVP2,2013-08-24 19:35:00,
2013-08-24 14:40:00,86.0,75.3,29.93,SE,139,3.0,8.0,70,0.00,,,0.15,WUHU216DAVISVP2,2013-08-24 19:40:00,
2013-08-24 14:45:00,85.9,75.6,29.93,SSW,200,3.0,7.0,71,0.00,,,0.15,WUHU216DAVISVP2,2013-08-24 19:45:00,
2013-08-24 14:50:00,86.3,76.4,29.93,SE,128,2.0,8.0,72,0.00,,,0.15,WUHU216DAVISVP2,2013-08-24 19:50:00,
2013-08-24 14:55:00,86.9,76.2,29.93,ESE,121,4.0,8.0,70,0.00,,,0.15,WUHU216DAVISVP2,2013-08-24 19:55:00,
2013-08-24 15:00:00,87.2,76.2,29.93,SE,136,3.0,8.0,70,0.00,,,0.15,WUHU216DAVISVP2,2013-08-24 20:00:00,
2013-08-24 15:05:00,87.4,76.4,29.92,South,182,3.0,8.0,70,0.00,,,0.15,WUHU216DAVISVP2,2013-08-24 20:05:00,
2013-08-24 15:10:00,87.5,76.5,29.93,SSE,148,3.0,8.0,70,0.00,,,0.15,WUHU216DAVISVP2,2013-08-24 20:10:00,
2013-08-24 15:15:00,87.5,76.5,29.92,SE,125,8.0,12.0,70,0.00,,,0.15,WUHU216DAVISVP2,2013-08-24 20:15:00,
2013-08-24 15:20:00,87.6,76.2,29.93,SSE,165,3.0,12.0,69,0.00,,,0.15,WUHU216DAVISVP2,2013-08-24 20:20:00,
2013-08-24 15:25:00,87.8,76.6,29.92,SE,143,5.0,12.0,69,0.00,,,0.15,WUHU216DAVISVP2,2013-08-24 20:25:00,
2013-08-24 15:30:00,87.8,77.1,29.92,South,176,8.0,12.0,70,0.00,,,0.15,WUHU216DAVISVP2,2013-08-24 20:30:00,
2013-08-24 15:35:00,87.8,76.6,29.92,SSE,157,2.0,9.0,69,0.00,,,0.15,WUHU216DAVISVP2,2013-08-24 20:35:00,
2013-08-24 15:40:00,88.0,77.3,29.92,South,179,3.0,9.0,70,0.00,,,0.15,WUHU216DAVISVP2,2013-08-24 20:40:00,
2013-08-24 15:45:00,88.2,77.4,29.92,SE,134,4.0,9.0,70,0.00,,,0.15,WUHU216DAVISVP2,2013-08-24 20:45:00,
2013-08-24 15:50:00,88.5,77.7,29.92,South,169,3.0,7.0,70,0.00,,,0.15,WUHU216DAVISVP2,2013-08-24 20:50:00,
2013-08-24 15:55:00,89.0,77.8,29.92,WNW,292,4.0,7.0,69,0.00,,,0.15,WUHU216DAVISVP2,2013-08-24 20:55:00,
2013-08-24 16:00:00,89.2,78.0,29.92,SSE,166,2.0,7.0,69,0.00,,,0.15,WUHU216DAVISVP2,2013-08-24 21:00:00,
2013-08-24 16:05:00,89.4,77.3,29.92,WNW,283,5.0,7.0,67,0.00,,,0.15,WUHU216DAVISVP2,2013-08-24 21:05:00,
2013-08-24 16:10:00,89.3,77.6,29.91,SSE,154,4.0,7.0,68,0.00,,,0.15,WUHU216DAVISVP2,2013-08-24 21:10:00,
2013-08-24 16:15:00,89.1,77.9,29.92,SSW,194,2.0,7.0,69,0.00,,,0.15,WUHU216DAVISVP2,2013-08-24 21:15:00,
2013-08-24 16:20:00,89.5,78.3,29.92,SSE,162,2.0,7.0,69,0.00,,,0.15,WUHU216DAVISVP2,2013-08-24 21:20:00,
2013-08-24 16:25:00,89.6,77.9,29.92,SSW,207,3.0,8.0,68,0.00,,,0.15,WUHU216DAVISVP2,2013-08-24 21:25:00,
2013-08-24 16:30:00,89.7,78.0,29.92,SSW,204,3.0,8.0,68,0.00,,,0.15,WUHU216DAVISVP2,2013-08-24 21:30:00,
2013-08-24 16:35:00,89.9,78.6,29.92,South,175,2.0,8.0,69,0.00,,,0.15,WUHU216DAVISVP2,2013-08-24 21:35:00,
2013-08-24 16:40:00,89.9,78.4,29.92,SSE,154,2.0,7.0,69,0.00,,,0.15,WUHU216DAVISVP2,2013-08-24 21:40:00,
2013-08-24 16:45:00,90.0,78.0,29.92,SSE,149,3.0,7.0,68,0.00,,,0.15,WUHU216DAVISVP2,2013-08-24 21:45:00,
2013-08-24 16:50:00,89.9,77.5,29.92,SSW,207,7.0,8.0,67,0.00,,,0.15,WUHU216DAVISVP2,2013-08-24 21:50:00,
2013-08-24 16:55:00,89.5,76.6,29.92,SSE,153,4.0,9.0,66,0.00,,,0.15,WUHU216DAVISVP2,2013-08-24 21:55:00,
2013-08-24 17:00:00,89.7,77.6,29.92,SSE,151,3.0,9.0,67,0.00,,,0.15,WUHU216DAVISVP2,2013-08-24 22:00:00,
2013-08-24 17:05:00,89.7,77.7,29.92,South,169,2.0,9.0,68,0.00,,,0.15,WUHU216DAVISVP2,2013-08-24 22:05:00,
2013-08-24 17:10:00,89.7,77.3,29.92,SE,139,3.0,8.0,67,0.00,,,0.15,WUHU216DAVISVP2,2013-08-24 22:10:00,
2013-08-24 17:15:00,89.6,77.2,29.92,SE,143,3.0,7.0,67,0.00,,,0.15,WUHU216DAVISVP2,2013-08-24 22:15:00,
2013-08-24 17:20:00,89.4,77.0,29.92,SSE,162,3.0,7.0,67,0.00,,,0.15,WUHU216DAVISVP2,2013-08-24 22:20:00,
2013-08-24 17:25:00,89.5,77.8,29.92,South,182,2.0,7.0,68,0.00,,,0.15,WUHU216DAVISVP2,2013-08-24 22:25:00,
2013-08-24 17:30:00,89.5,77.4,29.92,SE,138,3.0,8.0,67,0.00,,,0.15,WUHU216DAVISVP2,2013-08-24 22:30:00,
2013-08-24 17:35:00,89.4,77.3,29.92,SSW,200,3.0,8.0,67,0.00,,,0.15,WUHU216DAVISVP2,2013-08-24 22:35:00,
2013-08-24 17:40:00,89.3,77.2,29.92,SE,136,2.0,8.0,67,0.00,,,0.15,WUHU216DAVISVP2,2013-08-24 22:40:00,
2013-08-24 17:45:00,89.2,77.5,29.92,SE,131,3.0,9.0,68,0.00,,,0.15,WUHU216DAVISVP2,2013-08-24 22:45:00,
2013-08-24 17:50:00,88.9,77.3,29.92,South,172,7.0,9.0,68,0.00,,,0.15,WUHU216DAVISVP2,2013-08-24 22:50:00,
2013-08-24 17:55:00,88.8,77.2,29.92,ESE,109,3.0,9.0,68,0.00,,,0.15,WUHU216DAVISVP2,2013-08-24 22:55:00,
2013-08-24 18:00:00,88.9,77.3,29.92,SSW,195,3.0,7.0,68,0.00,,,0.15,WUHU216DAVISVP2,2013-08-24 23:00:00,
2013-08-24 18:05:00,89.0,77.8,29.92,SE,125,4.0,7.0,69,0.00,,,0.15,WUHU216DAVISVP2,2013-08-24 23:05:00,
2013-08-24 18:10:00,88.8,77.3,29.92,SE,144,3.0,8.0,69,0.00,,,0.15,WUHU216DAVISVP2,2013-08-24 23:10:00,
2013-08-24 18:15:00,88.7,77.2,29.92,SSE,167,2.0,8.0,69,0.00,,,0.15,WUHU216DAVISVP2,2013-08-24 23:15:00,
2013-08-24 18:20:00,88.8,78.0,29.92,SSE,159,3.0,8.0,70,0.00,,,0.15,WUHU216DAVISVP2,2013-08-24 23:20:00,
2013-08-24 18:25:00,88.6,77.8,29.92,SSE,162,2.0,7.0,70,0.00,,,0.15,WUHU216DAVISVP2,2013-08-24 23:25:00,
2013-08-24 18:30:00,88.3,77.5,29.92,SE,134,1.0,5.0,70,0.00,,,0.15,WUHU216DAVISVP2,2013-08-24 23:30:00,
2013-08-24 18:35:00,87.8,77.5,29.92,SW,214,4.0,8.0,71,0.00,,,0.15,WUHU216DAVISVP2,2013-08-24 23:35:00,
2013-08-24 18:40:00,87.4,77.5,29.92,South,169,3.0,8.0,72,0.00,,,0.15,WUHU216DAVISVP2,2013-08-24 23:40:00,
2013-08-24 18:45:00,87.0,77.1,29.92,SSE,165,2.0,8.0,72,0.00,,,0.15,WUHU216DAVISVP2,2013-08-24 23:45:00,
2013-08-24 18:50:00,86.6,77.1,29.92,SSE,151,3.0,8.0,73,0.00,,,0.15,WUHU216DAVISVP2,2013-08-24 23:50:00,
2013-08-24 18:55:00,86.3,77.3,29.92,SE,146,2.0,4.0,74,0.00,,,0.15,WUHU216DAVISVP2,2013-08-24 23:55:00,
2013-08-24 19:00:00,86.1,77.5,29.92,SW,215,1.0,4.0,75,0.00,,,0.15,WUHU216DAVISVP2,2013-08-25 00:00:00,
2013-08-24 19:05:00,85.7,77.1,29.91,SE,142,2.0,4.0,75,0.00,,,0.15,WUHU216DAVISVP2,2013-08-25 00:05:00,
2013-08-24 19:10:00,85.5,76.9,29.92,SE,143,2.0,4.0,75,0.00,,,0.15,WUHU216DAVISVP2,2013-08-25 00:10:00,
2013-08-24 19:15:00,85.3,76.7,29.91,SSE,158,2.0,7.0,75,0.00,,,0.15,WUHU216DAVISVP2,2013-08-25 00:15:00,
2013-08-24 19:20:00,85.0,76.8,29.92,SE,145,2.0,7.0,76,0.00,,,0.15,WUHU216DAVISVP2,2013-08-25 00:20:00,
2013-08-24 19:25:00,84.8,76.6,29.92,SSE,161,1.0,7.0,76,0.00,,,0.15,WUHU216DAVISVP2,2013-08-25 00:25:00,
2013-08-24 19:30:00,84.6,76.2,29.92,SE,146,2.0,7.0,76,0.00,,,0.15,WUHU216DAVISVP2,2013-08-25 00:30:00,
2013-08-24 19:35:00,84.4,76.0,29.92,SSE,166,1.0,5.0,76,0.00,,,0.15,WUHU216DAVISVP2,2013-08-25 00:35:00,
2013-08-24 19:40:00,84.2,76.2,29.92,SE,136,2.0,4.0,77,0.00,,,0.15,WUHU216DAVISVP2,2013-08-25 00:40:00,
2013-08-24 19:45:00,84.0,76.2,29.92,SE,144,1.0,4.0,77,0.00,,,0.15,WUHU216DAVISVP2,2013-08-25 00:45:00,
2013-08-24 19:50:00,83.7,75.9,29.92,SE,133,2.0,4.0,77,0.00,,,0.15,WUHU216DAVISVP2,2013-08-25 00:50:00,
2013-08-24 19:55:00,83.5,75.7,29.92,SSE,149,2.0,5.0,77,0.00,,,0.15,WUHU216DAVISVP2,2013-08-25 00:55:00,
2013-08-24 20:00:00,83.4,76.0,29.92,SSE,154,1.0,5.0,78,0.00,,,0.15,WUHU216DAVISVP2,2013-08-25 01:00:00,
2013-08-24 20:05:00,83.2,75.4,29.92,SE,129,3.0,8.0,77,0.00,,,0.15,WUHU216DAVISVP2,2013-08-25 01:05:00,
2013-08-24 20:10:00,83.1,75.7,29.92,SE,127,2.0,8.0,78,0.00,,,0.15,WUHU216DAVISVP2,2013-08-25 01:10:00,
2013-08-24 20:15:00,82.9,75.5,29.92,SE,144,2.0,8.0,78,0.00,,,0.15,WUHU216DAVISVP2,2013-08-25 01:15:00,
2013-08-24 20:20:00,82.7,75.3,29.92,East,97,0.0,8.0,78,0.00,,,0.15,WUHU216DAVISVP2,2013-08-25 01:20:00,
2013-08-24 20:25:00,82.5,75.1,29.92,SE,136,1.0,7.0,78,0.00,,,0.15,WUHU216DAVISVP2,2013-08-25 01:25:00,
2013-08-24 20:30:00,82.4,75.4,29.93,SSE,157,2.0,4.0,79,0.00,,,0.15,WUHU216DAVISVP2,2013-08-25 01:30:00,
2013-08-24 20:35:00,82.4,75.4,29.93,SE,142,2.0,8.0,79,0.00,,,0.15,WUHU216DAVISVP2,2013-08-25 01:35:00,
2013-08-24 20:40:00,82.2,75.2,29.93,SSE,157,1.0,8.0,79,0.00,,,0.15,WUHU216DAVISVP2,2013-08-25 01:40:00,
2013-08-24 20:45:00,82.1,75.1,29.93,SSE,150,2.0,8.0,79,0.00,,,0.15,WUHU216DAVISVP2,2013-08-25 01:45:00,
2013-08-24 20:50:00,82.0,75.3,29.93,SSE,152,2.0,8.0,80,0.00,,,0.15,WUHU216DAVISVP2,2013-08-25 01:50:00,
2013-08-24 20:55:00,81.9,75.2,29.94,SSE,147,2.0,4.0,80,0.00,,,0.15,WUHU216DAVISVP2,2013-08-25 01:55:00,
2013-08-24 21:00:00,81.7,75.0,29.94,SSE,158,2.0,4.0,80,0.00,,,0.15,WUHU216DAVISVP2,2013-08-25 02:00:00,
2013-08-24 21:05:00,81.5,75.2,29.93,SSE,163,1.0,4.0,81,0.00,,,0.15,WUHU216DAVISVP2,2013-08-25 02:05:00,
2013-08-24 21:10:00,81.3,75.0,29.93,SSE,154,2.0,4.0,81,0.00,,,0.15,WUHU216DAVISVP2,2013-08-25 02:10:00,
2013-08-24 21:15:00,81.2,74.9,29.94,SE,137,3.0,4.0,81,0.00,,,0.15,WUHU216DAVISVP2,2013-08-25 02:15:00,
2013-08-24 21:20:00,81.1,75.1,29.94,SSE,150,2.0,4.0,82,0.00,,,0.15,WUHU216DAVISVP2,2013-08-25 02:20:00,
2013-08-24 21:25:00,81.0,75.0,29.94,SSE,156,2.0,5.0,82,0.00,,,0.15,WUHU216DAVISVP2,2013-08-25 02:25:00,
2013-08-24 21:30:00,80.9,75.0,29.94,SE,146,3.0,5.0,82,0.00,,,0.15,WUHU216DAVISVP2,2013-08-25 02:30:00,
2013-08-24 21:35:00,80.8,74.9,29.94,SE,130,1.0,5.0,82,0.00,,,0.15,WUHU216DAVISVP2,2013-08-25 02:35:00,
2013-08-24 21:40:00,80.7,74.8,29.95,East,94,2.0,5.0,82,0.00,,,0.15,WUHU216DAVISVP2,2013-08-25 02:40:00,
2013-08-24 21:45:00,80.6,74.7,29.95,ESE,106,3.0,5.0,82,0.00,,,0.15,WUHU216DAVISVP2,2013-08-25 02:45:00,
2013-08-24 21:50:00,80.6,74.7,29.95,ESE,119,2.0,5.0,82,0.00,,,0.15,WUHU216DAVISVP2,2013-08-25 02:50:00,
2013-08-24 21:55:00,80.5,74.6,29.95,SE,127,2.0,5.0,82,0.00,,,0.15,WUHU216DAVISVP2,2013-08-25 02:55:00,
2013-08-24 22:00:00,80.4,74.5,29.95,SSE,154,2.0,5.0,82,0.00,,,0.15,WUHU216DAVISVP2,2013-08-25 03:00:00,
2013-08-24 22:05:00,80.3,74.4,29.95,SE,143,1.0,5.0,82,0.00,,,0.15,WUHU216DAVISVP2,2013-08-25 03:05:00,
2013-08-24 22:10:00,80.3,74.4,29.95,SE,139,1.0,5.0,82,0.00,,,0.15,WUHU216DAVISVP2,2013-08-25 03:10:00,
2013-08-24 22:15:00,80.2,74.2,29.95,SSE,167,3.0,5.0,82,0.00,,,0.15,WUHU216DAVISVP2,2013-08-25 03:15:00,
2013-08-24 22:20:00,80.2,74.2,29.95,SE,146,3.0,5.0,82,0.00,,,0.15,WUHU216DAVISVP2,2013-08-25 03:20:00,
2013-08-24 22:25:00,80.1,74.2,29.95,SSE,149,2.0,5.0,82,0.00,,,0.15,WUHU216DAVISVP2,2013-08-25 03:25:00,
2013-08-24 22:30:00,80.1,74.2,29.96,SSE,152,2.0,5.0,82,0.00,,,0.15,WUHU216DAVISVP2,2013-08-25 03:30:00,
2013-08-24 22:35:00,80.0,73.7,29.96,SE,136,1.0,4.0,81,0.00,,,0.15,WUHU216DAVISVP2,2013-08-25 03:35:00,
2013-08-24 22:40:00,79.9,73.6,29.96,SE,140,2.0,5.0,81,0.00,,,0.15,WUHU216DAVISVP2,2013-08-25 03:40:00,
2013-08-24 22:45:00,80.0,73.7,29.96,SSE,152,2.0,5.0,81,0.00,,,0.15,WUHU216DAVISVP2,2013-08-25 03:45:00,
2013-08-24 22:50:00,80.0,73.7,29.96,SSE,152,2.0,5.0,81,0.00,,,0.15,WUHU216DAVISVP2,2013-08-25 03:50:00,
2013-08-24 22:55:00,80.0,73.7,29.96,ESE,115,2.0,5.0,81,0.00,,,0.15,WUHU216DAVISVP2,2013-08-25 03:55:00,
2013-08-24 23:00:00,79.9,73.2,29.96,SE,139,3.0,4.0,80,0.00,,,0.15,WUHU216DAVISVP2,2013-08-25 04:00:00,
2013-08-24 23:01:00,79.9,73.2,29.96,SSE,154,2.0,5.0,80,0.00,,,0.15,WUHU216DAVISVP2,2013-08-25 04:01:00,
2013-08-24 23:02:00,79.9,73.2,29.96,SSE,151,2.0,5.0,80,0.00,,,0.15,WUHU216DAVISVP2,2013-08-25 04:02:00,
2013-08-24 23:07:00,80.0,73.4,29.96,SSE,148,2.0,5.0,80,0.00,,,0.15,WUHU216DAVISVP2,2013-08-25 04:07:00,
2013-08-24 23:12:00,80.0,73.4,29.96,SSE,166,2.0,5.0,80,0.00,,,0.15,WUHU216DAVISVP2,2013-08-25 04:12:00,
2013-08-24 23:17:00,80.0,73.4,29.96,SSE,164,2.0,7.0,80,0.00,,,0.15,WUHU216DAVISVP2,2013-08-25 04:17:00,
2013-08-24 23:22:00,80.1,73.1,29.96,SSE,167,2.0,7.0,79,0.00,,,0.15,WUHU216DAVISVP2,2013-08-25 04:22:00,
2013-08-24 23:27:00,80.1,73.1,29.96,SE,146,1.0,7.0,79,0.00,,,0.15,WUHU216DAVISVP2,2013-08-25 04:27:00,
2013-08-24 23:32:00,80.0,73.0,29.96,SSE,149,2.0,7.0,79,0.00,,,0.15,WUHU216DAVISVP2,2013-08-25 04:32:00,
2013-08-24 23:37:00,80.0,73.0,29.96,ESE,110,4.0,5.0,79,0.00,,,0.15,WUHU216DAVISVP2,2013-08-25 04:37:00,
2013-08-24 23:42:00,79.9,72.9,29.96,South,174,4.0,4.0,79,0.00,,,0.15,WUHU216DAVISVP2,2013-08-25 04:42:00,
2013-08-24 23:47:00,79.9,72.9,29.96,SSE,154,2.0,8.0,79,0.00,,,0.15,WUHU216DAVISVP2,2013-08-25 04:47:00,
2013-08-24 23:52:00,79.9,72.8,29.96,SSE,157,2.0,8.0,79,0.00,,,0.15,WUHU216DAVISVP2,2013-08-25 04:52:00,
2013-08-24 23:57:00,79.8,72.7,29.96,South,186,1.0,8.0,79,0.00,,,0.15,WUHU216DAVISVP2,2013-08-25 04:57:00,